SL-4 R/B (53324 NORAD) Tracking and Keplerian Element Data

This shows tracking and keplerian element data for the satellite.

Feedback or suggestion? Click here.




ElementValue
Catalog53324
NameSL-4 R/B
Epoch Orbit446
Epoch Day242.22027602
Epoch Year2022
RAAN341.5838
Inclination97.2533
Eccentricity0.0096159
Argument of Perigee322.5347
Mean Anonmoly36.9239
Mean Motion15.74552816
Decay Rate0.00048934
L11 53324U 22089B 22242.22027602 .00048934 28735-5 25372-3 0 9991
L22 53324 97.2533 341.5838 0096159 322.5347 36.9239 15.74552816 4466



Live tracking and technical data element details for SL-4 R/B (NORAD 53324). SL-4 R/B can be tracked NOW for your location showing map with azimuth and elevation plus other details from your city location.







IsCatalogInMostPopularTable: catalog: 53324, numindb: 7
Update: records affected: 1



GetName: 53324 SL-4 R/B

Hit Count: updated at: Tue, 29 Nov 2022 00:49:51 GMT